Council Bluffs
Monday 11:15 PM
Temperature77° (90°/68°)
Dew Point63°
Relative Humidity61
%
Visibility10
mi
Pressure1013.2
mb
Wind DirectionS
190°
Wind Speed13
mph
(G21)
Precipitation Today0.00"

Last 30 Observations

Time PresWx Temp DP Feels RH% Vsby Pressure Ceiling Direction Speed 1h Precip
10:55 PM 77° 63° 61
%
10
mi
1012.9
mb
SSW
200°
15
mph
0.00"
10:35 PM 79° 63° 58
%
10
mi
1012.9
mb
SSW
200°
15
mph
0.00"
10:15 PM 79° 63° 58
%
10
mi
1012.5
mb
SSW
200°
14
mph
(G22)
0.00"
9:55 PM 79° 63° 58
%
10
mi
1012.5
mb
SSW
200°
14
mph
0.00"
9:35 PM 81° 61° 51
%
10
mi
1011.9
mb
SSW
200°
15
mph
0.00"
9:15 PM 81° 61° 51
%
10
mi
1011.9
mb
SSW
200°
11
mph
0.00"
8:55 PM 82° 61° 48
%
10
mi
1011.9
mb
SSW
210°
15
mph
0.00"
8:35 PM 82° 61° 48
%
10
mi
1011.5
mb
SSW
200°
15
mph
0.00"
8:15 PM 82° 61° 48
%
10
mi
1011.5
mb
SSW
200°
14
mph
0.00"
7:55 PM 84° 59° 43
%
10
mi
1011.2
mb
SSW
200°
13
mph
(G21)
0.00"
7:35 PM 84° 59° 43
%
10
mi
1011.2
mb
SSW
200°
15
mph
0.00"
7:15 PM 86° 59° 40
%
10
mi
1011.2
mb
SSW
200°
14
mph
(G25)
0.00"
6:55 PM 86° 61° 43
%
10
mi
1011.2
mb
SSW
200°
16
mph
(G24)
0.00"
6:35 PM 86° 59° 40
%
10
mi
1011.2
mb
SSW
200°
21
mph
0.00"
6:15 PM 88° 59° 38
%
10
mi
1011.2
mb
SSW
200°
18
mph
(G29)
0.00"
5:55 PM 88° 57° 36
%
10
mi
1011.2
mb
SSW
210°
17
mph
(G29)
0.00"
5:35 PM 88° 57° 36
%
10
mi
1010.8
mb
SSW
210°
21
mph
(G32)
0.00"
5:15 PM 88° 57° 36
%
10
mi
1011.2
mb
SSW
210°
18
mph
(G32)
0.00"
4:55 PM 90° 57° 34
%
10
mi
1011.2
mb
SSW
210°
18
mph
(G29)
0.00"
4:35 PM 90° 57° 34
%
10
mi
1011.2
mb
SSW
210°
20
mph
(G32)
0.00"
4:15 PM 90° 57° 34
%
10
mi
1011.2
mb
SSW
210°
21
mph
(G30)
0.00"
3:55 PM 88° 59° 38
%
10
mi
1011.5
mb
SSW
200°
18
mph
(G30)
0.00"
3:35 PM 88° 59° 38
%
10
mi
1011.9
mb
SSW
200°
18
mph
(G29)
0.00"
3:15 PM 88° 59° 38
%
10
mi
1011.9
mb
SSW
200°
20
mph
(G37)
0.00"
2:55 PM 88° 61° 40
%
10
mi
1011.9
mb
SSW
210°
21
mph
(G30)
0.00"
2:35 PM 86° 61° 43
%
10
mi
1011.9
mb
SSW
200°
22
mph
(G37)
0.00"
2:15 PM 86° 61° 43
%
10
mi
1011.9
mb
SSW
200°
22
mph
(G32)
0.00"
1:55 PM 86° 61° 43
%
10
mi
1012.2
mb
SSW
200°
22
mph
(G30)
0.00"
1:35 PM 84° 61° 45
%
10
mi
1012.9
mb
SSW
200°
17
mph
(G33)
0.00"
1:15 PM 84° 63° 48
%
10
mi
1012.9
mb
SSW
200°
15
mph
(G31)
0.00"